Liberia, Costa Rica

5:10 PM CST on June 22, 2017 (GMT -0600)
Daniel Oduber Quiros International

Weather History for MRLB - August, 2014

Change the Weather History Date:

Thursday, August 14, 2014

  Actual Average Record
Temperature  
Mean Temperature 85 °F -  
Max Temperature 97 °F 86 °F 97 °F (2014)
Min Temperature 73 °F 74 °F 70 °F (2012)
Cooling Degree Days 20    
Growing Degree Days 35 (Base 50)    
Moisture  
Dew Point 69 °F    
Average Humidity 52    
Maximum Humidity 79    
Minimum Humidity 39    
Precipitation  
Precipitation 0.00 in - - ()
Sea Level Pressure  
Sea Level Pressure 29.82 in    
Wind  
Wind Speed 13 mph ()    
Max Wind Speed 22 mph    
Max Gust Speed -    
Visibility 7.7 miles    
Events      
Averages and records for this station are not official NWS values.
T = Trace of Precipitation, MM = Missing Value Source: Averaged Metar Reports

Daily Weather History Graph

Daily Weather History Graph

Search for Another Location

Airport or City:

Trip Planner

Search our weather history database for the weather conditions in past years. The results will help you decide how hot, cold, wet, or windy it might be!

Date:

Astronomy

Aug. 14, 2014 Rise Set
Actual Time 5:32 AM CST 6:01 PM CST
Civil Twilight 5:10 AM CST 6:22 PM CST
Nautical Twilight 4:45 AM CST 6:48 PM CST
Astronomical Twilight 4:19 AM CST 7:13 PM CST
Moon 9:26 PM CST (8/14) 9:10 AM CST (8/14)
Length of Visible Light 13h 12m
Length of Day
12h 28m
Waning Gibbous, 78% of the Moon is Illuminated
Aug 14
Waning Gibbous
Aug 17
Last Quarter
Aug 25
New
Sep 2
First Quarter
Sep 8
Full

Hourly Weather History & Observations

Time (CST) Temp. Heat Index Dew Point Humidity Pressure Visibility Wind Dir Wind Speed Gust Speed Precip Events Conditions
6:00 AM 80 °F - 74 °F 77% 29.84 in 12 mi East 13.8 mph - -   Clear
6:00 AM 80.6 °F 85.4 °F 73.4 °F 79% 29.81 in - East 13.8 mph - N/A   Clear
7:00 AM 84.2 °F 88.4 °F 69.8 °F 62% 29.84 in - East 12.7 mph - N/A   Clear
8:00 AM 86.0 °F 90.4 °F 69.8 °F 58% 29.85 in - East 17.3 mph - N/A   Clear
9:00 AM 90 °F - 68 °F 39% 29.89 in 12 mi East 13.8 mph - -   Scattered Clouds
9:00 AM 89.6 °F 93.4 °F 68.0 °F 49% 29.86 in 6.2 mi East 13.8 mph - N/A   Scattered Clouds
10:00 AM 93.2 °F 98.8 °F 69.8 °F 46% 29.86 in 6.2 mi ENE 15.0 mph - N/A   Scattered Clouds
11:00 AM 93.2 °F 97.7 °F 68.0 °F 44% 29.86 in 6.2 mi ENE 13.8 mph - N/A   Scattered Clouds
12:00 PM 95.0 °F 99.5 °F 68.0 °F 41% 29.84 in 6.2 mi ENE 15.0 mph - N/A   Scattered Clouds
1:00 PM 95.0 °F 99.5 °F 68.0 °F 41% 29.82 in 6.2 mi NE 21.9 mph - N/A   Scattered Clouds
2:00 PM 91.4 °F 98.4 °F 71.6 °F 52% 29.79 in 6.2 mi NE 15.0 mph - N/A   Mostly Cloudy
3:00 PM 89 °F - 68 °F 40% 29.82 in 12 mi ENE 16.1 mph - -   Scattered Clouds
3:00 PM 87.8 °F 91.4 °F 68.0 °F 52% 29.79 in 6.2 mi ENE 16.1 mph - N/A   Mostly Cloudy
4:00 PM 87.8 °F 91.4 °F 68.0 °F 52% 29.78 in 6.2 mi ENE 13.8 mph - N/A   Mostly Cloudy
5:00 PM 87.8 °F 91.4 °F 68.0 °F 52% 29.78 in 6.2 mi East 15.0 mph - N/A   Mostly Cloudy
6:00 PM 86 °F - 65 °F 41% 29.84 in 12 mi ENE 15.0 mph - -   Overcast
6:00 PM 86.0 °F 88.2 °F 66.2 °F 51% 29.81 in 6.2 mi ENE 15.0 mph - N/A   Mostly Cloudy
6:01 PM 86.0 °F 88.2 °F 66.2 °F 51% 29.81 in 6.2 mi ENE 15.0 mph - N/A   Mostly Cloudy
7:00 PM 82.4 °F 85.4 °F 68.0 °F 62% 29.80 in 6.2 mi East 11.5 mph - N/A   Mostly Cloudy
8:00 PM 82.4 °F 84.6 °F 66.2 °F 58% 29.78 in - East 10.4 mph - N/A   Clear